Weather History for LDPL - October, 2012

Change the Weather History Date:

Tuesday, October 9, 2012

  Actual Average Record
Temperature  
Mean Temperature 58 °F -  
Max Temperature 62 °F - - ()
Min Temperature 53 °F - - ()
Degree Days  
Heating Degree Days 8    
Growing Degree Days 8 (Base 50)    
Moisture  
Dew Point 51 °F    
Average Humidity 77    
Maximum Humidity 100    
Minimum Humidity 53    
Precipitation  
Precipitation 0.08 in - - ()
Sea Level Pressure  
Sea Level Pressure 29.90 in    
Wind  
Wind Speed 3 mph ()    
Max Wind Speed 6 mph    
Max Gust Speed -    
Visibility 7.1 miles    
Events Rain    
T = Trace of Precipitation, MM = Missing Value Source: Averaged Metar Reports

Daily Weather History Graph

Daily Weather History Graph

Search for Another Location

Airport or City:

Trip Planner

Search our weather history database for the weather conditions in past years. The results will help you decide how hot, cold, wet, or windy it might be!

Date:

Astronomy

Oct. 09, 2012 Rise Set
Actual Time 7:12 AM CEST 6:29 PM CEST
Civil Twilight 6:43 AM CEST 6:58 PM CEST
Nautical Twilight 6:09 AM CEST 7:32 PM CEST
Astronomical Twilight 5:35 AM CEST 8:06 PM CEST
Moon 12:16 AM CEST (10/9) 3:00 PM CEST (10/9)
Length of Visible Light 12h 15m
Length of Day
11h 17m
Last Quarter, 39% of the Moon is Illuminated
Oct 9
Last Quarter
Oct 15
New
Oct 22
First Quarter
Oct 29
Full
Nov 7
Last Quarter

Hourly Weather History & Observations

Time (CEST) Temp. Dew Point Humidity Pressure Visibility Wind Dir Wind Speed Gust Speed Precip Events Conditions
12:00 AM 59.0 °F 44.6 °F 59% 30.01 in 6.2 mi Variable 1.2 mph - N/A   Scattered Clouds
12:30 AM 57.2 °F 46.4 °F 67% 29.98 in 6.2 mi Variable 1.2 mph - N/A   Mostly Cloudy
1:00 AM 59.0 °F 46.4 °F 63% 29.98 in 6.2 mi Variable 2.3 mph - N/A   Mostly Cloudy
1:30 AM 59.0 °F 46.4 °F 63% 29.98 in 6.2 mi Calm Calm - N/A   Mostly Cloudy
2:00 AM 56 °F 46 °F 60% 29.99 in 16 mi Calm Calm - -   Partly Cloudy
2:00 AM 57.2 °F 46.4 °F 67% 29.98 in 6.2 mi Calm Calm - N/A   Scattered Clouds
2:30 AM 57.2 °F 46.4 °F 67% 29.95 in 6.2 mi Variable 2.3 mph - N/A   Mostly Cloudy
3:00 AM 55.4 °F 44.6 °F 67% 29.95 in 6.2 mi Variable 2.3 mph - N/A   Partly Cloudy
3:30 AM 55.4 °F 46.4 °F 72% 29.92 in 6.2 mi ENE 4.6 mph - N/A   Partly Cloudy
4:00 AM 55.4 °F 46.4 °F 72% 29.92 in 6.2 mi Variable 2.3 mph - N/A   Partly Cloudy
4:30 AM 55.4 °F 46.4 °F 72% 29.92 in 6.2 mi NE 4.6 mph - N/A   Mostly Cloudy
5:00 AM 57 °F 45 °F 55% 29.92 in 12 mi ENE 4.5 mph - -   Mostly Cloudy
5:00 AM 57.2 °F 46.4 °F 67% 29.89 in 6.2 mi ENE 4.6 mph - N/A   Mostly Cloudy
5:30 AM 55.4 °F 46.4 °F 72% 29.89 in 6.2 mi Variable 2.3 mph - N/A   Scattered Clouds
6:00 AM 56 °F 47 °F 63% 29.91 in 12 mi ENE 4.5 mph - -   Mostly Cloudy
6:00 AM 55.4 °F 46.4 °F 72% 29.89 in 6.2 mi ENE 4.6 mph - N/A   Mostly Cloudy
6:30 AM 57.2 °F 46.4 °F 67% 29.89 in 6.2 mi Variable 2.3 mph - N/A   Mostly Cloudy
7:00 AM 57 °F 48 °F 62% 29.89 in 19 mi ENE 2.2 mph - -   Partly Cloudy
7:00 AM 57.2 °F 48.2 °F 72% 29.89 in 6.2 mi Variable 2.3 mph - N/A   Scattered Clouds
7:30 AM 59.0 °F 46.4 °F 63% 29.89 in 6.2 mi East 4.6 mph - N/A   Scattered Clouds
8:00 AM 59 °F 47 °F 56% 29.89 in 19 mi ENE 4.5 mph - -   Partly Cloudy
8:00 AM 59.0 °F 48.2 °F 67% 29.89 in 6.2 mi ENE 4.6 mph - N/A   Scattered Clouds
8:30 AM 60.8 °F 46.4 °F 59% 29.89 in 6.2 mi East 4.6 mph - N/A   Scattered Clouds
9:00 AM 59.0 °F 48.2 °F 67% 29.89 in 6.2 mi East 4.6 mph - N/A   Scattered Clouds
9:30 AM 60.8 °F 50.0 °F 68% 29.89 in 6.2 mi ENE 4.6 mph - N/A   Scattered Clouds
10:00 AM 60.8 °F 48.2 °F 63% 29.89 in 6.2 mi ENE 4.6 mph - N/A   Mostly Cloudy
10:30 AM 60.8 °F 50.0 °F 68% 29.89 in 6.2 mi ENE 4.6 mph - N/A   Mostly Cloudy
11:00 AM 61 °F 48 °F 53% 29.89 in 19 mi NNE 4.5 mph - -   Overcast
11:00 AM 60.8 °F 48.2 °F 63% 29.89 in 6.2 mi NNE 4.6 mph - N/A   Mostly Cloudy
11:30 AM 60.8 °F 50.0 °F 68% 29.86 in 6.2 mi East 4.6 mph - N/A   Mostly Cloudy
12:00 PM 62.6 °F 50.0 °F 63% 29.86 in 6.2 mi East 5.8 mph - N/A   Mostly Cloudy
12:30 PM 60.8 °F 51.8 °F 72% 29.89 in 6.2 mi ENE 4.6 mph - N/A Rain Light Rain
1:00 PM 60.8 °F 51.8 °F 72% 29.89 in 6.2 mi NNE 4.6 mph - N/A Rain Light Rain
1:30 PM 59.0 °F 53.6 °F 82% 29.86 in 6.2 mi ESE 4.6 mph - N/A Rain Light Rain
2:00 PM 60.8 °F 57.2 °F 88% 29.86 in 6.2 mi Variable 2.3 mph - N/A Rain Light Rain
2:30 PM 60.8 °F 59.0 °F 94% 29.86 in 6.2 mi SE 4.6 mph - N/A   Mostly Cloudy
3:00 PM 60.8 °F 59.0 °F 94% 29.86 in 6.2 mi Variable 2.3 mph - N/A   Mostly Cloudy
3:30 PM 60.8 °F 59.0 °F 94% 29.86 in 6.2 mi Variable 1.2 mph - N/A   Mostly Cloudy
4:00 PM 60.8 °F 59.0 °F 94% 29.86 in 6.2 mi SE 4.6 mph - N/A   Mostly Cloudy
4:30 PM 60.8 °F 57.2 °F 88% 29.86 in 3.7 mi ESE 4.6 mph - N/A Rain Light Rain
5:00 PM 60 °F 58 °F 90% 29.89 in 2 mi ESE 4.5 mph - - Rain Light Rain
5:00 PM 59.0 °F 57.2 °F 94% 29.89 in 2.5 mi ESE 4.6 mph - N/A Rain Light Rain
5:30 PM 59.0 °F 57.2 °F 94% 29.86 in 2.5 mi ESE 4.6 mph - N/A Rain Light Rain
6:00 PM 59.0 °F 57.2 °F 94% 29.86 in 4.3 mi East 4.6 mph - N/A Rain Light Rain
6:30 PM 59.0 °F 57.2 °F 94% 29.89 in 6.2 mi ESE 4.6 mph - N/A   Mostly Cloudy
7:00 PM 59.0 °F 57.2 °F 94% 29.89 in 6.2 mi Variable 3.5 mph - N/A   Mostly Cloudy
7:30 PM 59.0 °F 57.2 °F 94% 29.89 in 6.2 mi Variable 2.3 mph - N/A   Overcast
8:00 PM 59 °F 57 °F 90% 29.90 in 9 mi ENE 2.2 mph - -   Partly Cloudy
8:00 PM 59.0 °F 57.2 °F 94% 29.89 in 6.2 mi Variable 2.3 mph - N/A   Overcast
8:30 PM 59.0 °F 57.2 °F 94% 29.89 in 6.2 mi Variable 2.3 mph - N/A   Overcast
9:00 PM 59.0 °F 57.2 °F 94% 29.89 in 6.2 mi Variable 2.3 mph - N/A   Overcast
9:30 PM 57.2 °F 57.2 °F 100% 29.89 in 6.2 mi Variable 1.2 mph - N/A   Overcast
10:00 PM 57.2 °F 55.4 °F 94% 29.89 in 6.2 mi Variable 3.5 mph - N/A   Overcast
10:30 PM 57.2 °F 55.4 °F 94% 29.89 in 6.2 mi Variable 2.3 mph - N/A   Overcast
11:00 PM 56 °F 54 °F 91% 29.92 in 12 mi ENE 2.2 mph - -   Overcast
11:00 PM 55.4 °F 53.6 °F 94% 29.89 in 6.2 mi Variable 2.3 mph - N/A   Scattered Clouds
11:30 PM 53.6 °F 53.6 °F 100% 29.89 in 6.2 mi NE 4.6 mph - N/A   Scattered Clouds